Beverly, MA

9:40 PM EDT on June 27, 2017 (GMT -0400)
Beverly Municipal

Weather History for KBVY - June, 2013

Change the Weather History Date:

Friday, June 14, 2013

  Actual Average Record
Temperature  
Mean Temperature 62 °F -  
Max Temperature 73 °F 71 °F 88 °F (1984)
Min Temperature 51 °F 52 °F 20 °F (1990)
Degree Days  
Heating Degree Days 3    
Growing Degree Days 12 (Base 50)    
Moisture  
Dew Point 52 °F    
Average Humidity 82    
Maximum Humidity 100    
Minimum Humidity 51    
Precipitation  
Precipitation 0.96 in - - ()
Sea Level Pressure  
Sea Level Pressure 29.68 in    
Wind  
Wind Speed 7 mph (NNE)    
Max Wind Speed 12 mph    
Max Gust Speed 17 mph    
Visibility 8 miles    
Events Rain    
Averages and records for this station are not official NWS values.
T = Trace of Precipitation, MM = Missing Value Source: NWS Daily Summary

Daily Weather History Graph

Daily Weather History Graph

Search for Another Location

Airport or City:

Trip Planner

Search our weather history database for the weather conditions in past years. The results will help you decide how hot, cold, wet, or windy it might be!

Date:

Astronomy

Jun. 14, 2013 Rise Set
Actual Time 5:05 AM EDT 8:22 PM EDT
Civil Twilight 4:30 AM EDT 8:57 PM EDT
Nautical Twilight 3:45 AM EDT 9:42 PM EDT
Astronomical Twilight 2:50 AM EDT 10:38 PM EDT
Moon 10:43 AM EDT (6/14) 11:50 PM EDT (6/14)
Length of Visible Light 16h 27m
Length of Day
15h 17m
Waxing Crescent, 30% of the Moon is Illuminated
Jun 14
Waxing Crescent
Jun 16
First Quarter
Jun 23
Full
Jun 30
Last Quarter
Jul 8
New

Hourly Weather History & Observations

Time (EDT) Temp. Dew Point Humidity Pressure Visibility Wind Dir Wind Speed Gust Speed Precip Events Conditions
12:05 AM 53.6 °F 51.8 °F 94% 29.68 in 6.0 mi ENE 6.9 mph 16.1 mph 0.02 in Rain Light Rain
12:12 AM 53.6 °F 51.8 °F 94% 29.68 in 6.0 mi ENE 5.8 mph - 0.03 in Rain Rain
12:42 AM 53.6 °F 51.8 °F 94% 29.68 in 5.0 mi NE 9.2 mph - 0.07 in Rain Rain
12:53 AM 53.1 °F 50.0 °F 89% 29.67 in 5.0 mi NE 8.1 mph - 0.09 in Rain Rain
1:53 AM 52.0 °F 50.0 °F 93% 29.65 in 6.0 mi NNE 8.1 mph - 0.12 in Rain Rain
2:28 AM 51.8 °F 50.0 °F 94% 29.65 in 6.0 mi NNE 5.8 mph - 0.06 in Rain Rain
2:34 AM 51.8 °F 51.8 °F 100% 29.65 in 6.0 mi NNE 6.9 mph - 0.07 in Rain Rain
2:53 AM 53.1 °F 51.1 °F 93% 29.63 in 6.0 mi NNE 9.2 mph - 0.10 in Rain Rain
3:10 AM 53.6 °F 51.8 °F 94% 29.65 in 6.0 mi NNE 6.9 mph - 0.03 in Rain Rain
3:19 AM 53.6 °F 51.8 °F 94% 29.65 in 6.0 mi NNE 6.9 mph - 0.04 in Rain Light Rain
3:42 AM 53.6 °F 51.8 °F 94% 29.66 in 6.0 mi NNE 9.2 mph 17.3 mph 0.07 in Rain Rain
3:53 AM 53.1 °F 52.0 °F 96% 29.65 in 7.0 mi NE 8.1 mph 16.1 mph 0.09 in Rain Rain
4:53 AM 53.1 °F 51.1 °F 93% 29.65 in 7.0 mi NNE 6.9 mph - 0.09 in Rain Rain
5:53 AM 53.1 °F 51.1 °F 93% 29.67 in 5.0 mi NNE 8.1 mph - 0.14 in Rain Rain
6:01 AM 53.6 °F 51.8 °F 94% 29.68 in 5.0 mi NNE 9.2 mph - 0.01 in Rain Rain
6:11 AM 53.6 °F 51.8 °F 94% 29.69 in 5.0 mi NE 6.9 mph 16.1 mph 0.03 in Rain Rain
6:40 AM 53.6 °F 51.8 °F 94% 29.69 in 6.0 mi NE 9.2 mph - 0.09 in Rain Light Rain
6:48 AM 53.6 °F 51.8 °F 94% 29.69 in 7.0 mi NE 6.9 mph - 0.10 in Rain Light Rain
6:53 AM 53.1 °F 51.1 °F 93% 29.68 in 7.0 mi NNE 5.8 mph - 0.10 in Rain Light Rain
7:07 AM 53.6 °F 51.8 °F 94% 29.70 in 5.0 mi NNE 4.6 mph - 0.03 in Rain Rain
7:53 AM 53.1 °F 51.1 °F 93% 29.70 in 6.0 mi North 5.8 mph - 0.11 in Rain Rain
8:53 AM 53.1 °F 51.1 °F 93% 29.70 in 7.0 mi NNE 4.6 mph - 0.09 in Rain Light Rain
9:53 AM 55.9 °F 52.0 °F 87% 29.70 in 10.0 mi North 4.6 mph - 0.02 in Rain Light Rain
10:53 AM 59.0 °F 54.0 °F 83% 29.70 in 10.0 mi North 5.8 mph - 0.00 in   Overcast
11:53 AM 62.1 °F 50.0 °F 65% 29.71 in 10.0 mi North 6.9 mph - N/A   Scattered Clouds
12:53 PM 64.0 °F 51.1 °F 63% 29.71 in 10.0 mi Variable 5.8 mph - N/A   Overcast
1:53 PM 66.0 °F 54.0 °F 65% 29.70 in 10.0 mi Calm Calm - N/A   Partly Cloudy
2:53 PM 70.0 °F 54.0 °F 57% 29.68 in 10.0 mi NW 11.5 mph - 0.01 in   Mostly Cloudy
3:53 PM 69.1 °F 54.0 °F 58% 29.68 in 10.0 mi NW 5.8 mph - N/A   Mostly Cloudy
4:53 PM 73.0 °F 55.0 °F 53% 29.67 in 10.0 mi NW 9.2 mph - N/A   Mostly Cloudy
5:53 PM 73.0 °F 54.0 °F 51% 29.68 in 10.0 mi NNW 5.8 mph - N/A   Scattered Clouds
6:53 PM 72.0 °F 54.0 °F 53% 29.68 in 10.0 mi WNW 3.5 mph - N/A   Partly Cloudy
7:53 PM 64.9 °F 54.0 °F 68% 29.68 in 10.0 mi Calm Calm - N/A   Partly Cloudy
8:53 PM 63.0 °F 55.0 °F 75% 29.70 in 10.0 mi Calm Calm - N/A   Clear
9:53 PM 64.0 °F 53.1 °F 67% 29.71 in 10.0 mi Calm Calm - N/A   Mostly Cloudy
10:53 PM 63.0 °F 53.1 °F 70% 29.71 in 10.0 mi WNW 4.6 mph - N/A   Partly Cloudy
11:53 PM 62.1 °F 52.0 °F 70% 29.75 in 10.0 mi North 5.8 mph - N/A   Clear